| time (UTC) | temp C | wind direction | speed KPH | gust KPH | rain 1hr cm | rain 24hr cm | rain mn cm | humidity % | barometer mb |
| 20260505224512 | 26 | 318 | 19.3 | 27.4 | 0.00 | 0.00 | 0.00 | 25 | 1010.8 |
| 20260505223011 | 26 | 345 | 12.9 | 29.0 | 0.00 | 0.00 | 0.00 | 27 | 1010.8 |
| 20260505221510 | 26 | 348 | 6.4 | 29.0 | 0.00 | 0.00 | 0.00 | 27 | 1010.9 |
| 20260505220115 | 25 | 321 | 17.7 | 29.0 | 0.00 | 0.00 | 0.00 | 26 | 1011.0 |
| 20260505214510 | 25 | 322 | 14.5 | 25.7 | 0.00 | 0.00 | 0.00 | 28 | 1011.0 |
| 20260505213008 | 25 | 324 | 17.7 | 27.4 | 0.00 | 0.00 | 0.00 | 28 | 1011.0 |
| 20260505211508 | 25 | 9 | 16.1 | 25.7 | 0.00 | 0.00 | 0.00 | 30 | 1011.0 |
| 20260505210050 | 25 | 5 | 3.2 | 12.9 | 0.00 | 0.00 | 0.00 | 31 | 1011.1 |
| 20260505204553 | 24 | 29 | 3.2 | 22.5 | 0.00 | 0.00 | 0.00 | 34 | 1011.2 |
| 20260505203044 | 24 | 5 | 4.8 | 20.9 | 0.00 | 0.00 | 0.00 | 38 | 1011.3 |
| 20260505201534 | 23 | 315 | 8.0 | 22.5 | 0.00 | 0.00 | 0.00 | 39 | 1011.4 |
| 20260505200036 | 23 | 343 | 1.6 | 20.9 | 0.00 | 0.00 | 0.00 | 41 | 1011.5 |
| 20260505194533 | 23 | 306 | 9.7 | 19.3 | 0.00 | 0.00 | 0.00 | 41 | 1011.7 |
| 20260505193033 | 22 | 280 | 0.0 | 19.3 | 0.00 | 0.00 | 0.00 | 43 | 1011.9 |
| 20260505191532 | 22 | 305 | 6.4 | 14.5 | 0.00 | 0.00 | 0.00 | 44 | 1012.0 |
| 20260505190031 | 21 | 337 | 3.2 | 16.1 | 0.00 | 0.00 | 0.00 | 45 | 1012.1 |
| 20260505184531 | 21 | 286 | 8.0 | 14.5 | 0.00 | 0.00 | 0.00 | 47 | 1012.2 |
| 20260505183018 | 21 | 110 | 1.6 | 14.5 | 0.00 | 0.00 | 0.00 | 47 | 1012.2 |
| 20260505181517 | 20 | 304 | 4.8 | 14.5 | 0.00 | 0.00 | 0.00 | 47 | 1012.2 |
| 20260505180017 | 20 | 276 | 4.8 | 16.1 | 0.00 | 0.00 | 0.00 | 47 | 1012.0 |
| 20260505174517 | 19 | 326 | 3.2 | 12.9 | 0.00 | 0.00 | 0.00 | 48 | 1012.2 |
| 20260505173034 | 19 | 44 | 0.0 | 8.0 | 0.00 | 0.00 | 0.00 | 52 | 1012.2 |
| 20260505171516 | 18 | 53 | 3.2 | 12.9 | 0.00 | 0.00 | 0.00 | 54 | 1012.2 |
| 20260505170022 | 17 | 5 | 3.2 | 8.0 | 0.00 | 0.00 | 0.00 | 55 | 1012.2 |
| 20260505164532 | 17 | 30 | 4.8 | 8.0 | 0.00 | 0.00 | 0.00 | 59 | 1012.2 |
| 20260505163111 | 15 | 349 | 1.6 | 6.4 | 0.00 | 0.00 | 0.00 | 61 | 1012.3 |
| 20260505161510 | 14 | 301 | 1.6 | 6.4 | 0.00 | 0.00 | 0.00 | 62 | 1012.3 |
| 20260505153051 | 12 | 94 | 0.0 | 0.0 | 0.00 | 0.00 | 0.00 | 64 | 1012.5 |
| 20260505151545 | 11 | 94 | 0.0 | 3.2 | 0.00 | 0.00 | 0.00 | 65 | 1012.3 |
| 20260505124520 | 8 | 128 | 6.4 | 12.9 | 0.00 | 0.00 | 0.00 | 70 | 1011.3 |
| 20260505123013 | 9 | 140 | 3.2 | 6.4 | 0.00 | 0.00 | 0.00 | 66 | 1011.3 |
| 20260505121511 | 10 | 142 | 6.4 | 14.5 | 0.00 | 0.00 | 0.00 | 65 | 1011.3 |
| 20260505120009 | 10 | 123 | 0.0 | 9.7 | 0.00 | 0.00 | 0.00 | 64 | 1011.1 |
| 20260505114508 | 10 | 137 | 1.6 | 8.0 | 0.00 | 0.00 | 0.00 | 64 | 1011.1 |
| 20260505113100 | 10 | 125 | 3.2 | 12.9 | 0.00 | 0.00 | 0.00 | 65 | 1010.9 |
| 20260505111557 | 10 | 132 | 1.6 | 11.3 | 0.00 | 0.00 | 0.00 | 64 | 1010.9 |
| 20260505101542 | 10 | 136 | 0.0 | 9.7 | 0.00 | 0.00 | 0.00 | 60 | 1010.5 |
| 20260505100048 | 10 | 173 | 3.2 | 9.7 | 0.00 | 0.00 | 0.00 | 59 | 1010.5 |
| 20260505094536 | 11 | 150 | 3.2 | 8.0 | 0.00 | 0.00 | 0.00 | 58 | 1010.5 |
| 20260505093023 | 11 | 149 | 0.0 | 8.0 | 0.00 | 0.00 | 0.00 | 56 | 1010.5 |
| 20260505091520 | 11 | 136 | 8.0 | 16.1 | 0.00 | 0.00 | 0.00 | 55 | 1010.5 |
| 20260505090024 | 12 | 126 | 3.2 | 17.7 | 0.00 | 0.00 | 0.00 | 53 | 1010.4 |
| 20260505084514 | 12 | 167 | 8.0 | 14.5 | 0.00 | 0.00 | 0.00 | 53 | 1010.4 |
| 20260505083011 | 12 | 155 | 6.4 | 12.9 | 0.00 | 0.00 | 0.00 | 54 | 1010.4 |
| 20260505081510 | 12 | 128 | 0.0 | 3.2 | 0.00 | 0.00 | 0.00 | 53 | 1010.3 |
| 20260505080007 | 13 | 155 | 4.8 | 11.3 | 0.00 | 0.00 | 0.00 | 50 | 1010.3 |
| 20260505074505 | 13 | 163 | 4.8 | 9.7 | 0.00 | 0.00 | 0.00 | 51 | 1010.2 |
| 20260505073109 | 12 | 161 | 1.6 | 4.8 | 0.00 | 0.00 | 0.00 | 54 | 1010.2 |
| 20260505071548 | 13 | 216 | 0.0 | 1.6 | 0.00 | 0.00 | 0.00 | 53 | 1010.1 |
| 20260505070046 | 15 | 216 | 0.0 | 3.2 | 0.00 | 0.00 | 0.00 | 47 | 1010.0 |
| 20260505064541 | 15 | 210 | 4.8 | 9.7 | 0.00 | 0.00 | 0.00 | 50 | 1009.9 |
| 20260505063041 | 16 | 225 | 4.8 | 11.3 | 0.00 | 0.00 | 0.00 | 47 | 1009.7 |
| 20260505061546 | 16 | 221 | 4.8 | 9.7 | 0.00 | 0.00 | 0.00 | 44 | 1009.7 |
| 20260505060031 | 16 | 143 | 0.0 | 4.8 | 0.00 | 0.00 | 0.00 | 43 | 1009.5 |
| 20260505054529 | 17 | 175 | 0.0 | 6.4 | 0.00 | 0.00 | 0.00 | 42 | 1009.6 |
| 20260505053025 | 17 | 113 | 0.0 | 4.8 | 0.00 | 0.00 | 0.00 | 40 | 1009.6 |
| 20260505051607 | 17 | 114 | 0.0 | 6.4 | 0.00 | 0.00 | 0.00 | 37 | 1009.4 |
| 20260505041538 | 19 | 257 | 3.2 | 14.5 | 0.00 | 0.00 | 0.00 | 29 | 1008.8 |
| 20260505040038 | 20 | 264 | 0.0 | 11.3 | 0.00 | 0.00 | 0.00 | 30 | 1008.7 |
| 20260505034532 | 20 | 246 | 3.2 | 12.9 | 0.00 | 0.00 | 0.00 | 30 | 1008.5 |
| 20260505033035 | 21 | 261 | 3.2 | 19.3 | 0.00 | 0.00 | 0.00 | 29 | 1008.1 |
| 20260505031523 | 21 | 253 | 8.0 | 27.4 | 0.00 | 0.00 | 0.00 | 27 | 1007.9 |
| 20260505030020 | 22 | 296 | 12.9 | 29.0 | 0.00 | 0.00 | 0.00 | 26 | 1007.6 |
| 20260505024610 | 22 | 277 | 17.7 | 29.0 | 0.00 | 0.00 | 0.00 | 25 | 1007.4 |
| 20260505023054 | 24 | 292 | 11.3 | 17.7 | 0.00 | 0.00 | 0.00 | 24 | 1007.3 |
| 20260505021554 | 24 | 321 | 12.9 | 25.7 | 0.00 | 0.00 | 0.00 | 23 | 1007.1 |
| 20260505020044 | 25 | 324 | 9.7 | 22.5 | 0.00 | 0.00 | 0.00 | 24 | 1007.0 |
| 20260505014533 | 25 | 326 | 14.5 | 20.9 | 0.00 | 0.00 | 0.00 | 23 | 1007.1 |
| 20260505013032 | 25 | 309 | 8.0 | 16.1 | 0.00 | 0.00 | 0.00 | 23 | 1007.1 |
| 20260505011532 | 25 | 327 | 12.9 | 17.7 | 0.00 | 0.00 | 0.00 | 23 | 1007.2 |
| 20260505010025 | 26 | 323 | 11.3 | 22.5 | 0.00 | 0.00 | 0.00 | 24 | 1007.3 |
| 20260505004535 | 26 | 342 | 9.7 | 20.9 | 0.00 | 0.00 | 0.00 | 23 | 1007.5 |
| 20260505003021 | 26 | 340 | 16.1 | 27.4 | 0.00 | 0.00 | 0.00 | 23 | 1007.4 |
| 20260505001507 | 26 | 336 | 20.9 | 32.2 | 0.00 | 0.00 | 0.00 | 23 | 1007.5 |
| 20260505000007 | 26 | 360 | 11.3 | 20.9 | 0.00 | 0.00 | 0.00 | 23 | 1007.3 |
| 20260504234505 | 26 | 9 | 14.5 | 25.7 | 0.00 | 0.00 | 0.00 | 23 | 1007.5 |
| 20260504233003 | 26 | 355 | 12.9 | 22.5 | 0.00 | 0.00 | 0.00 | 24 | 1007.5 |
| 20260504231501 | 26 | 303 | 14.5 | 25.7 | 0.00 | 0.00 | 0.00 | 21 | 1007.8 |
| 20260504230104 | 26 | 277 | 4.8 | 14.5 | 0.00 | 0.00 | 0.00 | 21 | 1007.7 |
| 20260504224558 | 26 | 325 | 11.3 | 33.8 | 0.00 | 0.00 | 0.00 | 22 | 1008.0 |